Regional Weather Roundup
Issued by NWS Jackson, KY

Home | Current Version | Previous Version | Text Only | Print | Product List | Glossary On
Versions: 1 2 3 4 5 6 7 8 9 10 11 12 13 14 15 16 17 18 19 20 21 22 23 24 25 26 27 28 29 30 31 32 33 34 35 36 37 38 39 40 41 42 43 44 45 46 47 48 49 50
000
ASUS43 KJKL 290819
RWRJKL

EAST KENTUCKY HOURLY WEATHER ROUNDUP
NATIONAL WEATHER SERVICE JACKSON KY
300 AM EST MON DEC 29 2014

NOTE: "FAIR" INDICATES FEW OR NO CLOUDS BELOW 12,000 FEET WITH
NO SIGNIFICANT WEATHER AND/OR OBSTRUCTIONS TO VISIBILITY.

* THESE REPORTS ARE NOT UNDER NWS QUALITY CONTROL AND MAY NOT
  REPORT WEATHER SUCH AS PRECIPITATION AND FOG.

KYZ079-080-083-085-087-088-110-112-115-119-120-290900
...EASTERN KENTUCKY...

CITY           SKY/WX    TMP DP  RH WIND       PRES   REMARKS
JACKSON        LGT RAIN  36  35  96 NE3       30.15S FOG
LONDON         LGT RAIN  38  34  85 N6        30.14F WCI  33
SOMERSET*      CLOUDY    36  36 100 NE9       30.16S WCI  29
MONTICELLO*    LGT SNOW  38  38 100 CALM      30.17S FOG
MIDDLESBORO*   DRIZZLE   42  42  98 NE6       30.13R
HARLAN APT*    CLOUDY    41  41 100 N6        30.13R
HAZARD APT*    LGT RAIN  37  37 100 CALM      30.15
BLACK MTN*       N/A     39  39 100 S3          N/A
PIKEVILLE APT* FOG       36  36 100 N6        30.14R VSB 1/4 WCI  31
BIG SANDY*     CLOUDY    35  35 100 N3        30.16R FOG
MOREHEAD APT*  CLOUDY    34  32  93 CALM      30.21R FOG
ASHLAND*       CLOUDY   N/A N/A N/A N5        30.17S
$$

KYZ035-036-041-042-044-050-067-078-099-290900
...CENTRAL KENTUCKY...

CITY           SKY/WX    TMP DP  RH WIND       PRES   REMARKS
MT STERLING*   CLOUDY    32  32 100 NE3       30.19F
FLEMING/MASON* MOCLDY    32  30  93 N6        30.22R WCI  26
DANVILLE*      CLOUDY    32  32 100 NE5       30.18S WCI  27
RICHMOND*      CLOUDY    34  32  93 NE5       30.17S WCI  30
LEXINGTON      CLOUDY    31  29  92 N7        30.19R WCI  24
FRANKFORT      PTCLDY    31  28  89 N5        30.18R WCI  26
$$

KYZ091>093-OHZ055-061-077-WVZ005-015-034-035-042-290900
...SOUTHERN OHIO/WEST VIRGINIA...

CITY           SKY/WX    TMP DP  RH WIND       PRES   REMARKS
COVINGTON      PTCLDY    30  24  78 NE6       30.22R WCI  24
COLUMBUS       PTCLDY    27  24  89 N5        30.21R WCI  22
DAYTON         CLEAR     26  23  88 N6        30.23R FOG     WCI  19
WILMINGTON     PTCLDY    27  24  89 N6        30.20S FOG     WCI  20
HUNTINGTON     CLOUDY    34  32  92 NE3       30.17F
CHARLESTON     CLOUDY    37  34  89 N3        30.16S
PINEVILLE*     CLOUDY    42  42 100 MISG      30.14S
BECKLEY        CLOUDY    36  35  96 N10       30.08R FOG     WCI  28
BLUEFIELD      CLOUDY    42  38  85 NW3       30.08R
$$

VAZ002-007-008-TNZ017-027-036-066-071-290900
...SOUTHWEST VIRGINIA/EAST TENNESSEE...

CITY           SKY/WX    TMP DP  RH WIND       PRES   REMARKS
WISE*          FOG       41  41 100 CALM      30.09S VSB 1/4
JONESVILLE*    CLOUDY    45  45 100 CALM      30.12R
ABINGDON*      LGT RAIN  48  48 100 CALM      30.07S
BRISTOL        LGT RAIN  48  48 100 CALM      30.10R FOG
KNOXVILLE      LGT RAIN  46  46 100 NW5       30.09S
OAK RIDGE      LGT RAIN  46  45  96 CALM      30.12R
CROSSVILLE     LGT RAIN  43  39  86 NE5       30.09S
NASHVILLE      CLOUDY    37  36  96 N6        30.16F FOG     WCI  32
$$

...KEY TO REMARKS...
VSB - VISIBILITY IN MILES
WCI - WIND CHILL INDEX
HX  - HEAT INDEX

$$


USA.gov is the U.S. government's official web portal to all federal, state and local government web resources and services.